Regional Weather Roundup
Issued by NWS Albany, NY

Home | Current Version | Previous Version | Text Only | Print | Product List | Glossary On
Versions: 1 2 3 4 5 6 7 8 9 10 11 12 13 14 15 16 17 18 19 20 21 22 23 24 25 26 27 28 29 30 31 32 33 34 35 36 37 38 39 40 41 42 43 44 45 46 47 48 49 50
000
ASUS41 KALY 180110
RWRALY

NEW YORK STATE HOURLY WEATHER ROUNDUP
NATIONAL WEATHER SERVICE ALBANY NY
900 PM EDT WED SEP 17 2014

NOTE: "FAIR" INDICATES FEW OR NO CLOUDS BELOW 12,000 FEET WITH NO
SIGNIFICANT WEATHER AND/OR NO OBSTRUCTIONS TO VISIBILITY.

NYZ032-033-038>043-046>054-057>066-NYZ062>081-180200-
EAST


CITY           SKY/WX    TMP DP  RH WIND       PRES   REMARKS
ALBANY         PTCLDY    53  48  83 CALM      29.98S
GLENS FALLS    CLEAR     50  47  89 CALM      29.97R
POUGHKEEPSIE   PTCLDY    53  49  86 CALM      29.98R
MONTGOMERY     MOCLDY    53  49  86 CALM      29.99R
WHITE PLAINS   CLEAR     56  48  74 CALM      29.99R
ISLIP          PTCLDY    57  48  72 CALM      29.99R
NEW YORK CITY  PTCLDY    68  47  46 CALM      29.98R
CENTRAL PARK   CLEAR     66  43  43 W3        30.01R
$$

NYZ005>009-017-018-044>046-055-056-180200-
CENTRAL


CITY           SKY/WX    TMP DP  RH WIND       PRES   REMARKS
FULTON         PTCLDY    52  49  89 CALM      29.97R
SYRACUSE       MOCLDY    56  49  77 E3        29.97R
ROME           PTCLDY    51  48  89 CALM      29.99R
ELMIRA         PTCLDY    52  50  93 CALM      29.98S
BINGHAMTON     CLEAR     56  41  57 SE3       30.00R
MONTICELLO     PTCLDY    52  46  82 SE3       30.02S
$$

NYZ026>034-041>043-180200-
NORTH


CITY           SKY/WX    TMP DP  RH WIND       PRES   REMARKS
WATERTOWN      CLOUDY    56  47  71 S3        29.95S
FORT DRUM      NOT AVBL
MASSENA        CLOUDY    58  49  72 SW10      29.92R
SARANAC LAKE   CLEAR     48  45  89 SW3       29.95R
PLATTSBURGH    PTCLDY    55  50  83 S3        29.92R
$$

NYZ001>004-010>016-019>021-180200-
WEST


CITY           SKY/WX    TMP DP  RH WIND       PRES   REMARKS
NIAGARA FALLS  MOCLDY    55  47  74 W6        29.96S
BUFFALO        MOCLDY    59  47  64 SW6       29.97S
DUNKIRK        MOCLDY    55  51  86 S5        29.99R
JAMESTOWN      PTCLDY    54  46  76 NW6       30.01R
WELLSVILLE     PTCLDY    54  46  74 CALM      30.02R
ROCHESTER      PTCLDY    55  50  83 CALM      29.97S
PENN YAN       PTCLDY    52  49  89 S3        29.99R
$$

             KEY
       WCI = WIND CHILL INDEX
       VSB = VISIBILITY
       HX  = HEAT INDEX
$$



USA.gov is the U.S. government's official web portal to all federal, state and local government web resources and services.